Theta_e
309 309 309 309 310 309 310 309 308 308 306 303 303 303 304 305 308 311 308 305 309 304 308 310 308 308 308 309 313 321 329 330 328 327 326 324 324 323 324 324 322 323 323 322 340
309 309 309 309 309 310 310 309 309 308 306 302 302 304 306 309 313 311 312 304 306 310 308 307 307 309 305 309 312 317 320 325 326 326 326 325 324 323 322 322 322 322 321 323 324
307 307 307 307 307 307 309 309 309 308 306 302 302 305 306 314 311 311 311 307 309 311 307 307 308 310 308 309 311 312 317 321 323 322 321 321 321 321 320 321 322 320 320 320 322
310 311 310 310 310 310 309 309 308 305 304 302 304 305 308 313 312 313 310 309 308 308 308 309 309 309 307 308 308 311 311 316 317 317 316 317 316 317 317 317 318 319 319 319 321
311 310 311 311 311 310 309 309 308 303 300 301 305 309 312 313 315 315 312 309 310 308 311 311 309 308 308 308 308 309 309 310 310 311 311 312 313 314 315 315 316 317 318 318 319
310 310 310 311 310 310 310 309 307 302 300 301 306 311 313 308 312 312 313 310 312 312 312 311 310 307 307 308 308 307 308 308 308 309 310 311 311 312 314 315 315 316 315 314 317
310 310 310 310 310 310 309 308 305 301 300 302 307 313 312 303 312 313 312 311 311 312 311 312 310 308 307 308 307 308 308 306 307 308 309 310 311 312 313 314 315 315 314 314 316
309 309 309 309 309 309 307 303 302 301 301 303 309 313 309 309 313 312 310 309 310 311 311 311 309 307 308 307 305 307 304 306 306 308 308 311 312 313 310 311 312 312 312 312 312
307 307 306 307 308 306 304 304 309 305 304 306 312 310 314 314 313 310 309 308 308 308 310 311 308 306 305 305 305 305 305 307 308 307 308 310 310 309 310 310 311 311 311 311 310
305 302 303 305 306 304 305 312 312 311 311 311 313 312 312 314 313 310 310 308 308 307 306 306 303 305 302 304 308 309 309 308 308 308 309 308 308 309 309 309 309 309 310 311 311
304 304 304 306 305 306 308 309 304 305 314 308 313 310 312 313 311 309 309 308 307 305 305 305 305 307 307 305 307 308 309 309 308 309 310 309 309 308 309 308 307 308 309 309 310
302 304 305 306 305 308 310 309 309 308 307 307 307 311 312 312 311 310 309 308 307 306 305 304 306 306 307 307 307 307 307 310 309 310 311 309 309 308 308 308 308 308 308 308 308
303 305 305 306 307 308 309 310 310 307 306 307 308 309 309 310 310 309 307 307 307 305 305 305 306 307 308 310 310 310 311 312 311 311 308 308 306 307 308 308 308 308 307 307 307
304 305 306 306 307 309 310 310 311 308 310 314 311 310 309 307 309 309 309 308 306 305 304 305 306 308 307 309 310 310 311 312 310 309 308 309 309 307 307 306 307 306 304 305 308
304 306 306 305 310 309 311 311 310 309 312 314 309 309 307 308 308 310 308 306 307 306 305 307 306 307 307 309 310 308 311 310 310 309 308 307 307 306 306 307 307 306 307 310 311
307 308 306 309 309 310 311 311 311 312 315 309 308 307 307 308 308 309 308 307 306 306 306 304 305 306 307 311 310 308 308 305 304 306 307 307 308 306 306 308 307 309 310 310 310
310 311 306 306 307 310 312 308 312 313 309 308 307 307 307 310 310 310 309 308 307 307 307 307 306 309 310 309 307 305 304 306 306 305 307 306 308 306 306 307 307 312 312 310 309
311 310 308 309 312 313 309 309 315 313 308 307 307 306 309 310 310 311 310 310 311 306 305 308 308 310 312 309 308 307 305 307 310 310 305 306 308 307 307 307 309 311 311 311 310
313 314 314 314 314 312 306 312 312 312 311 310 307 308 310 311 310 311 311 313 311 310 311 311 311 309 310 309 307 308 308 305 307 306 306 307 307 307 308 308 309 311 311 309 309
311 311 313 313 311 309 308 313 312 311 310 309 307 309 310 311 311 311 312 313 313 311 308 310 312 311 310 309 308 307 306 308 305 312 313 309 308 309 307 307 307 310 309 308 308
309 309 311 310 308 306 310 312 314 311 310 310 308 309 309 311 310 311 311 312 312 312 310 310 311 311 311 310 308 307 309 309 305 305 308 308 309 306 308 308 309 307 307 308 308
304 309 310 309 307 302 308 310 309 309 310 310 308 308 309 310 310 310 311 311 311 312 312 311 311 313 312 309 308 306 308 308 305 307 313 312 312 309 307 306 307 307 308 310 310
303 304 309 308 305 304 304 307 308 309 311 310 310 309 308 309 310 309 311 310 308 309 312 312 310 313 310 307 306 311 311 308 307 307 312 314 312 307 308 308 308 307 309 310 310
300 304 300 298 300 304 305 306 309 308 309 307 308 307 307 308 308 309 309 309 307 308 310 312 310 312 311 308 305 310 310 310 311 315 312 313 312 311 310 310 308 310 310 309 309
297 300 300 299 300 303 303 305 308 308 306 305 306 305 306 307 307 307 306 307 307 307 307 309 312 311 310 311 312 312 312 312 313 313 315 313 313 312 312 310 310 310 309 309 309
300 299 298 299 300 302 303 304 305 306 306 306 306 305 304 305 305 307 307 307 307 306 308 306 308 310 312 312 312 312 311 311 311 312 313 313 313 311 311 310 310 309 309 310 310
299 298 300 299 300 302 300 304 304 303 304 305 305 303 304 304 304 303 303 304 305 306 306 309 308 309 311 311 312 313 312 311 311 313 313 314 313 311 310 312 311 310 310 309 309
Wind_Speed
18 18 18 19 19 18 18 17 17 16 14 14 14 16 19 20 22 16 7 7 1 11 6 7 4 1 3 2 2 3 2 5 6 5 3 5 6 2 2 5 5 4 4 7 8
20 19 19 19 19 19 18 18 17 16 14 13 15 18 18 17 16 9 5 4 6 3 2 3 2 2 1 2 2 4 3 7 4 3 5 10 2 7 5 9 4 4 6 10 16
20 19 20 19 20 20 19 19 17 16 14 13 14 16 14 13 4 4 4 4 5 4 2 2 2 1 2 2 2 2 3 1 2 3 2 6 2 3 5 11 3 10 13 10 6
22 21 21 21 21 20 20 19 18 16 13 11 12 13 12 3 1 2 3 4 5 2 2 2 3 3 3 5 3 2 4 3 2 2 2 8 11 7 13 13 6 6 9 8 10
25 24 24 23 22 21 20 19 17 15 10 9 9 10 4 3 7 2 3 4 4 4 4 3 4 3 2 2 1 2 2 2 4 5 6 6 13 15 19 8 8 7 7 9 10
27 27 26 26 24 22 20 18 17 13 8 6 6 5 2 3 2 3 5 7 6 6 3 5 4 6 3 2 2 1 2 5 5 5 5 5 10 10 10 6 9 7 7 7 9
28 28 28 28 26 24 21 18 14 8 5 4 1 0 1 11 0 5 5 9 10 10 4 7 4 2 4 2 2 2 2 4 7 7 7 7 12 17 9 5 7 7 7 7 7
29 30 30 29 28 25 22 14 10 6 5 4 3 2 6 4 9 9 7 7 10 11 16 9 5 2 2 1 6 2 4 1 4 1 6 10 13 3 7 7 8 3 6 6 7
30 30 29 29 28 26 18 11 3 4 4 6 3 3 8 9 5 4 7 5 4 3 5 4 3 3 4 4 5 5 1 1 7 5 4 2 3 4 6 7 7 7 2 5 7
31 32 30 29 26 21 12 8 11 11 10 6 1 2 5 4 6 6 5 9 1 2 4 4 4 3 3 4 2 1 2 2 4 5 6 4 7 6 8 7 7 8 7 3 6
31 31 29 25 22 13 9 3 4 3 3 5 4 4 5 9 3 2 4 2 3 7 2 3 4 3 7 7 2 1 3 3 4 3 6 8 10 8 7 6 8 7 7 8 3
32 30 28 21 14 7 10 5 2 4 6 6 6 6 9 5 4 6 4 4 3 1 1 5 1 4 3 3 4 4 2 2 4 5 3 9 18 14 8 6 6 7 8 8 5
33 30 24 16 2 5 5 5 14 3 1 6 4 4 4 9 5 6 6 2 2 1 3 4 4 1 1 2 3 2 3 2 5 4 5 6 6 2 4 4 4 7 7 7 7
32 28 20 8 3 3 1 12 13 2 4 3 2 3 4 4 3 8 8 5 1 5 4 4 3 3 2 3 4 2 5 3 2 4 3 4 6 2 1 5 3 8 9 9 8
29 20 12 2 1 1 6 15 3 3 3 2 1 1 2 4 2 2 3 3 7 4 3 5 4 3 1 2 4 4 2 1 1 2 1 4 1 7 5 3 4 9 8 8 9
21 11 5 3 0 5 14 11 3 4 1 3 3 6 4 3 3 4 3 4 2 4 2 7 2 4 5 3 2 2 3 4 3 2 2 5 3 4 3 4 8 7 9 7 8
13 9 4 2 3 13 15 2 4 4 3 4 3 4 3 3 4 2 3 1 5 2 3 2 1 3 2 4 3 6 6 4 5 3 4 2 5 7 8 10 9 9 10 10 7
11 8 5 5 9 12 6 4 3 2 2 3 3 6 5 3 1 5 4 1 5 2 2 5 3 4 2 4 5 3 6 4 4 3 4 3 7 7 6 9 8 8 9 10 12
7 6 4 7 10 10 5 4 5 1 4 4 6 3 2 1 4 5 4 2 2 1 3 4 3 2 1 3 7 2 3 3 1 2 3 5 8 11 13 9 8 10 6 10 13
7 5 4 10 9 4 4 3 2 2 4 2 4 2 2 2 2 0 2 2 3 2 0 2 2 2 2 3 0 5 6 2 2 2 5 4 7 11 11 15 6 7 9 15 14
4 3 7 9 3 5 3 4 4 4 3 3 3 4 5 3 4 2 4 3 4 8 6 3 3 3 1 5 7 1 2 4 3 4 4 3 7 6 6 8 5 7 12 16 17
4 2 12 10 4 1 0 1 5 5 2 5 3 4 4 4 3 3 5 5 8 2 4 4 4 4 8 3 3 5 7 6 4 5 4 3 14 3 13 5 6 8 10 13 13
2 2 7 5 2 3 5 5 4 3 3 4 3 2 2 1 3 4 3 4 4 3 3 4 1 1 5 1 3 3 4 4 3 2 11 7 11 2 6 9 11 10 8 9 12
2 4 4 4 1 3 4 5 4 4 2 4 4 2 3 2 3 4 2 3 2 3 9 2 5 6 6 4 4 3 7 6 5 5 9 13 27 20 16 15 10 7 6 9 10
4 0 3 4 2 2 2 3 4 4 5 5 3 5 3 4 4 6 5 3 6 8 5 6 8 7 8 9 7 11 17 18 15 18 12 21 19 24 16 13 8 6 7 12 14
2 2 3 2 2 4 2 2 2 4 3 4 2 7 5 5 7 16 2 4 5 5 4 1 2 4 4 8 12 17 19 19 20 20 19 22 23 18 8 5 6 8 11 16 15
4 2 2 2 2 1 3 2 2 4 5 6 3 5 6 11 5 10 11 12 9 6 4 3 3 1 5 1 6 9 15 12 7 7 8 8 13 2 6 6 7 11 15 16 14
Wind_Direction
346 345 343 342 339 336 332 329 327 324 320 321 325 323 320 318 316 314 239 228 6 209 241 295 302 263 140 158 219 147 183 208 205 169 197 288 12 230 290 277 342 312 55 310 348
344 343 341 340 338 334 332 329 324 320 318 321 326 323 321 322 316 272 317 223 191 146 286 358 47 33 90 193 197 172 185 216 181 173 285 263 217 308 336 315 297 306 321 329 342
348 345 342 338 336 333 329 325 320 317 316 320 326 323 327 327 307 262 18 138 173 206 251 322 348 84 176 149 196 208 213 225 20 58 346 296 310 291 294 288 89 315 309 325 314
342 340 336 333 331 327 325 321 315 312 311 318 326 324 332 329 131 27 78 125 143 186 182 126 70 114 168 182 201 218 247 201 122 319 289 286 316 275 263 267 297 297 282 299 307
340 341 338 335 331 328 323 318 312 307 307 315 327 335 348 305 251 48 197 184 166 154 185 158 136 160 205 195 348 169 299 329 305 271 259 284 275 273 260 290 276 276 288 284 285
338 337 337 334 331 327 323 317 311 303 297 305 328 339 338 282 313 28 217 208 209 196 221 182 199 198 153 149 153 223 291 282 264 229 242 228 268 267 271 17 311 299 287 279 273
337 335 336 332 328 326 323 317 311 299 279 270 313 13 325 238 8 305 272 244 243 227 215 222 218 161 132 319 219 251 306 301 220 216 226 192 261 257 317 2 299 347 335 343 327
336 335 333 330 329 326 323 326 311 277 246 231 160 182 249 273 307 281 257 265 255 264 241 257 243 125 133 177 13 48 59 23 288 146 249 174 244 54 1 18 327 340 334 355 335
336 334 333 332 330 328 331 341 331 212 210 158 157 183 273 307 273 291 234 242 207 224 245 239 112 105 41 81 4 6 146 299 320 33 339 145 302 322 323 331 311 311 270 316 319
337 338 334 333 334 334 354 83 93 101 107 124 272 328 282 323 320 295 260 250 336 348 41 65 48 82 48 81 214 227 356 306 257 325 4 300 227 287 297 308 290 299 304 245 297
337 336 333 334 337 347 31 118 21 6 182 206 194 254 273 325 310 290 292 150 89 55 31 10 74 211 251 209 175 110 186 230 285 348 9 291 288 284 271 271 282 283 297 299 267
340 335 332 334 338 37 46 75 80 261 308 234 233 246 270 287 310 301 224 170 104 272 45 23 211 212 269 164 182 180 175 231 288 285 301 277 294 286 217 232 217 263 284 280 279
343 336 332 337 24 54 65 52 346 151 277 298 199 196 210 155 222 262 151 131 164 176 190 163 240 4 96 109 132 155 160 222 237 311 291 314 281 90 279 253 301 286 267 283 287
340 335 333 353 105 19 41 341 340 161 40 294 294 285 157 170 268 220 190 147 122 219 185 219 261 155 133 201 141 196 202 215 261 31 291 37 286 260 120 268 277 304 297 286 297
344 338 335 43 25 96 326 331 349 99 53 281 312 164 130 175 306 285 161 87 209 202 102 259 182 226 358 212 176 202 160 332 294 240 103 280 290 277 309 330 330 311 276 276 286
356 355 14 107 167 343 334 335 111 48 237 330 20 354 351 286 290 301 183 87 139 166 199 248 244 182 201 116 101 77 40 34 51 76 20 260 184 244 241 226 315 307 307 270 285
7 11 48 102 345 339 337 58 43 117 335 334 317 342 296 298 342 9 260 75 181 132 237 259 211 303 135 108 48 73 52 340 345 3 234 285 294 244 248 278 269 255 285 299 294
8 20 25 3 342 342 351 55 106 284 301 285 289 300 205 351 0 335 23 69 37 69 150 174 304 167 179 145 188 189 152 158 244 229 245 1 251 252 221 237 267 240 265 296 297
356 356 5 355 343 343 69 66 195 275 308 290 314 259 276 87 14 24 13 21 7 328 226 155 270 308 185 176 137 170 174 192 154 8 32 229 290 293 281 284 272 268 308 293 286
341 336 335 343 336 24 75 225 230 258 305 269 229 251 254 299 328 303 242 148 341 286 298 177 304 276 312 80 286 159 161 86 21 258 259 258 254 238 301 292 300 308 298 308 303
10 34 353 341 337 48 118 239 283 282 343 280 262 264 257 247 221 244 232 224 148 263 359 162 183 266 279 198 199 167 170 75 132 155 202 300 264 220 239 259 291 306 313 314 308
20 6 358 4 43 19 153 261 295 274 286 280 245 238 225 219 232 246 232 229 204 154 214 190 163 224 234 270 226 170 192 156 137 244 216 216 262 340 279 302 313 312 316 320 316
48 284 355 5 76 339 318 300 268 303 317 316 307 27 7 272 285 247 280 82 63 160 189 183 239 283 316 19 357 162 181 185 184 129 233 247 267 275 339 316 312 315 309 310 319
56 10 333 36 33 75 348 275 289 335 286 340 287 34 358 305 228 272 297 300 43 178 295 196 190 206 225 233 153 282 258 222 215 245 271 234 274 278 288 289 296 298 300 300 298
25 163 168 303 342 327 239 278 289 321 345 359 353 53 338 285 305 253 263 306 298 291 288 181 226 206 236 249 269 259 262 260 244 249 246 275 273 281 290 287 278 277 291 299 306
59 29 3 276 291 308 223 233 291 360 306 292 46 319 291 230 234 283 274 206 224 288 188 36 268 171 256 235 242 258 260 254 253 253 256 261 269 275 268 265 262 280 305 309 307
28 42 100 278 317 350 240 262 239 27 268 243 337 289 270 274 261 262 242 247 238 214 214 179 142 27 268 227 295 272 253 241 218 218 205 236 257 280 274 272 295 308 303 302 299